EB1TR-13 Weather Reports


Display with metric or nautical units.
time (UTC)temp
F
wind
direction
speed
MPH
gust
MPH
rain 1hr
in
rain 24hr
in
rain mn
in
humidity
%
barometer
mb
20260508060052 53 143 1.0 1.0 0.00 0.00 0.00 98 1007.0
20260508054553 53 143 1.0 1.0 0.00 0.00 0.00 97 1007.0
20260508053052 53 143 1.0 1.0 0.00 0.00 0.00 96 1007.0
20260508051552 53 143 1.0 1.0 0.00 0.00 0.00 96 1007.0
20260508050052 53 143 1.0 1.0 0.00 0.00 0.00 97 1007.0
20260508044552 53 143 1.0 1.0 0.00 0.00 0.00 96 1007.0
20260508043053 53 143 1.0 1.0 0.00 0.00 0.00 97 1007.0
20260508041552 53 143 1.0 1.0 0.00 0.00 0.00 97 1007.0
20260508040052 53 143 1.0 1.0 0.00 0.00 0.00 97 1008.0
20260508034552 53 143 1.0 1.0 0.00 0.00 0.00 97 1008.0
20260508033052 53 143 1.0 1.0 0.00 0.00 0.00 97 1008.0
20260508031552 53 143 1.0 1.0 0.00 0.00 0.00 97 1008.0
20260508030052 53 143 1.0 1.0 0.00 0.00 0.00 97 1008.0
20260508024552 54 143 1.0 1.0 0.00 0.00 0.00 96 1008.0
20260508023052 55 143 1.0 1.0 0.00 0.00 0.00 96 1008.0
20260508021552 55 143 1.0 1.0 0.00 0.00 0.00 96 1008.0
20260508020053 55 143 1.0 1.0 0.00 0.00 0.00 96 1008.0
20260508014552 55 143 1.0 1.0 0.00 0.00 0.00 95 1008.0
20260508013052 55 143 1.0 1.0 0.00 0.00 0.00 95 1009.0
20260508011551 55 143 1.0 1.0 0.00 0.00 0.00 95 1009.0
20260508010052 55 143 1.0 1.0 0.00 0.00 0.00 95 1009.0
20260508004552 56 143 1.0 1.0 0.00 0.00 0.00 95 1009.0
20260508003052 56 143 1.0 1.0 0.00 0.00 0.00 95 1009.0
20260508000052 56 143 1.0 1.0 0.00 0.00 0.00 95 1010.0
20260507234552 56 143 1.0 1.0 0.00 0.00 0.00 94 1009.0
20260507233052 56 143 1.0 1.0 0.00 0.00 0.00 94 1009.0
20260507231552 56 143 1.0 1.0 0.00 0.00 0.00 94 1010.0
20260507230052 56 143 1.0 1.0 0.00 0.00 0.00 94 1010.0
20260507224552 56 143 1.0 1.0 0.00 0.00 0.00 94 1010.0
20260507223052 56 143 1.0 1.0 0.00 0.00 0.00 93 1010.0
20260507221552 56 143 2.0 2.0 0.00 0.00 0.00 93 1010.0
20260507220052 56 143 2.0 2.0 0.00 0.00 0.00 92 1010.0
20260507214552 58 108 1.0 1.0 0.00 0.00 0.00 92 1010.0
20260507213052 58 35 1.0 1.0 0.00 0.00 0.00 91 1010.0
20260507211552 58 108 1.0 1.0 0.00 0.00 0.00 91 1011.0
20260507210051 59 35 1.0 1.0 0.00 0.00 0.00 90 1011.0
20260507204552 58 108 2.0 2.0 0.00 0.00 0.00 90 1010.0
20260507203051 59 35 1.0 2.0 0.00 0.00 0.00 90 1010.0
20260507201552 60 108 2.0 2.0 0.00 0.00 0.00 91 1010.0
20260507200052 60 108 2.0 2.0 0.00 0.00 0.00 91 1010.0
20260507194552 61 83 1.0 1.0 0.00 0.00 0.00 88 1009.0
20260507193052 61 83 1.0 2.0 0.00 0.00 0.00 88 1009.0
20260507191637 61 83 1.0 2.0 0.00 0.00 0.00 90 1009.0
20260507191446 61 83 1.0 2.0 0.00 0.00 0.00 90 1009.0
20260507185946 61 83 2.0 4.0 0.00 0.00 0.00 90 1009.0
20260507184446 63 178 1.0 4.0 0.00 0.00 0.00 82 1009.0
20260507182946 64 178 2.0 6.0 0.00 0.00 0.00 79 1009.0
20260507181446 63 38 1.0 1.0 0.00 0.00 0.00 80 1009.0
20260507175946 63 38 1.0 2.0 0.00 0.00 0.00 80 1009.0
20260507174446 63 38 2.0 4.0 0.00 0.00 0.00 79 1008.0
20260507172946 63 59 3.0 7.0 0.00 0.00 0.00 78 1008.0
20260507171446 63 49 2.0 8.0 0.00 0.00 0.00 79 1008.0
20260507165946 63 59 5.0 11.0 0.00 0.00 0.00 80 1008.0
20260507164446 63 78 4.0 8.0 0.00 0.00 0.00 82 1008.0
20260507162946 62 86 4.0 12.0 0.00 0.00 0.00 83 1008.0
20260507161446 62 45 6.0 12.0 0.00 0.00 0.00 85 1009.0
20260507155946 61 58 7.0 9.0 0.00 0.00 0.00 84 1009.0
20260507154446 62 30 4.0 7.0 0.00 0.00 0.00 83 1008.0
20260507152947 62 15 6.0 10.0 0.00 0.00 0.00 82 1008.0
20260507151446 62 24 7.0 12.0 0.00 0.00 0.00 81 1009.0
20260507145946 62 47 4.0 7.0 0.00 0.00 0.00 81 1009.0
20260507144446 62 47 7.0 11.0 0.00 0.00 0.00 79 1008.0
20260507142946 62 24 7.0 11.0 0.00 0.00 0.00 78 1009.0
20260507141446 62 44 7.0 11.0 0.00 0.00 0.00 78 1009.0
20260507135946 62 51 6.0 11.0 0.00 0.00 0.00 76 1009.0
20260507134446 62 67 6.0 12.0 0.00 0.00 0.00 77 1009.0
20260507132946 62 74 7.0 12.0 0.00 0.00 0.00 75 1009.0
20260507131446 62 62 6.0 12.0 0.00 0.00 0.00 77 1009.0
20260507125946 62 61 6.0 13.0 0.00 0.00 0.00 79 1009.0
20260507124446 62 53 6.0 11.0 0.00 0.00 0.00 79 1009.0
20260507122946 61 55 7.0 12.0 0.00 0.00 0.00 79 1010.0
20260507121447 61 40 7.0 12.0 0.00 0.00 0.00 79 1010.0
20260507115946 61 36 7.0 12.0 0.00 0.00 0.00 80 1010.0
20260507114446 61 39 5.0 11.0 0.00 0.00 0.00 81 1010.0
20260507112946 61 43 6.0 11.0 0.00 0.00 0.00 80 1010.0
20260507111447 61 17 6.0 11.0 0.00 0.00 0.00 81 1010.0
20260507105946 61 41 6.0 11.0 0.00 0.00 0.00 82 1010.0
20260507104447 60 52 4.0 9.0 0.00 0.00 0.00 82 1010.0
20260507102946 60 19 6.0 10.0 0.00 0.00 0.00 82 1010.0
20260507101446 60 29 5.0 9.0 0.00 0.00 0.00 82 1010.0
20260507095947 60 24 6.0 9.0 0.00 0.00 0.00 81 1011.0
20260507094447 60 49 4.0 9.0 0.00 0.00 0.00 81 1010.0
20260507092946 60 53 4.0 7.0 0.00 0.00 0.00 81 1011.0
20260507091446 60 50 4.0 7.0 0.00 0.00 0.00 81 1011.0
20260507085946 59 46 2.0 7.0 0.00 0.00 0.00 83 1011.0
20260507084446 59 80 3.0 6.0 0.00 0.00 0.00 83 1011.0
20260507082946 58 79 1.0 2.0 0.00 0.00 0.00 86 1011.0
20260507081446 57 79 2.0 3.0 0.00 0.00 0.00 87 1011.0
20260507075946 56 79 2.0 3.0 0.00 0.00 0.00 90 1011.0
20260507074446 53 232 1.0 2.0 0.00 0.00 0.00 92 1011.0
20260507072946 53 232 1.0 2.0 0.00 0.00 0.00 93 1011.0
20260507071446 52 232 1.0 2.0 0.00 0.00 0.00 93 1012.0
20260507065946 52 232 1.0 2.0 0.00 0.00 0.00 93 1012.0
20260507064446 52 232 1.0 2.0 0.00 0.00 0.00 93 1012.0
20260507062946 51 154 1.0 1.0 0.00 0.00 0.00 93 1012.0
20260507061446 51 154 1.0 1.0 0.00 0.00 0.00 93 1012.0